Regional Weather Roundup
Issued by NWS

Home | Current Version | Previous Version | Text Only | Print | Product List | Glossary On
Versions: 1 2 3 4 5 6 7 8 9 10 11 12 13 14 15 16 17 18 19 20 21 22 23 24 25 26 27 28 29 30 31 32 33 34 35 36 37 38 39 40 41 42 43 44 45 46 47 48 49 50
000
ASUS42 KTBW 020817
RWRFL
FLORIDA REGIONAL WEATHER ROUNDUP
NATIONAL WEATHER SERVICE TAMPA BAY RUSKIN FL
400 AM EDT SUN AUG 02 2015

NOTE: "FAIR" INDICATES FEW OR NO CLOUDS BELOW 12,000 FEET WITH NO
SIGNIFICANT WEATHER AND/OR OBSTRUCTIONS TO VISIBILITY.


FLZ001>010-012>015-112-114-115-020900-
PANHANDLE FLORIDA

CITY           SKY/WX    TMP DP  RH WIND       PRES   REMARKS
PENSACOLA      CLEAR     76  72  87 N5        29.83F
PENSACOLA NAS  CLEAR     76  70  82 N5        29.83F
MILTON NAS     CLEAR     75  72  90 N3        29.85S
CRESTVIEW      CLEAR     77  74  90 NE5       29.85F
DUKE FIELD     FAIR      76  73  90 NW3       29.82F
VALPARAISO     PTCLDY    76  74  92 NW5       29.82F
MARY ESTHER    CLEAR     77  73  88 NW3       29.81F
TRI COUNTY     FAIR      75  73  93 CALM      29.84F
PANAMA CITY    FAIR      77  76  96 CALM      29.82S
TYNDALL AFB    PTCLDY    77  75  95 NE3       29.82S
APALACHICOLA   MOCLDY    78  73  84 NW3       29.82S

STATION/POSITION SKY/WX   TEMP    WIND        PRES    WAVE   SWELL
                          AIR SEA DIR/SP/G            HT/PER HT/PER
                          (F)     (DEG/KT/KT) (MB)    (FT/S) (FT/S)
30.1N   87.6W              85 86  360/ 10/ 12 1009.5F   1/ 9
29.2N   88.2W              85 87  280/ 14/ 16 1010.8F   1/ 5
28.8N   86.0W              79 86  320/  8/ 10 1010.0F   4/ 7   3/ 7
PANAMA CITY BEAC           80 86  290/  3/  3 1009.8F
CAPE SAN BLAS    NOT AVBL
TOWER C                    81     320/  6/  7 1009.4F
28.5N   84.5W              83 84  230/ 17/ 23 1009.3F   6/ 7

$$
FLZ011-016>038-118-127-128-134-139-239-020900-
NORTH FLORIDA

CITY           SKY/WX    TMP DP  RH WIND       PRES   REMARKS
MARIANNA       CLEAR     74  74 100 NE5       29.83F
TALLAHASSEE    PTCLDY    79  75  87 NE7       29.82S
PERRY          MOCLDY    75  75 100 E6        29.83S
CROSS CITY       N/A     77  75  93 S8        29.83F
LAKE CITY      CLOUDY    73  73 100 SE8       29.87F
GAINESVILLE    CLOUDY    74  71  91 S7        29.88F
MAYPORT NAS    CLOUDY    76  72  87 S8        29.90F
JACKSONVILLE   CLOUDY    76  71  85 S14G20    29.88F
JAX NAS        CLOUDY    81  72  74 S15       29.89F
JAX CRAIG      MOCLDY    75  71  87 S6        29.90S
JAX CECIL      MOCLDY    73  72  94 SE6       29.89F
FERNANDINA BEA PTSUNNY   79  72  78 S8        29.88F
ST AUGUSTINE   MOCLDY    75  71  87 S9G17     29.91F

STATION/POSITION SKY/WX   TEMP    WIND        PRES    WAVE   SWELL
                          AIR SEA DIR/SP/G            HT/PER HT/PER
                          (F)     (DEG/KT/KT) (MB)    (FT/S) (FT/S)
SHELL POINT                76      30/  5/  7   N/A
KEATON BEACH               82     200/ 20/ 22 1009.5F
CEDAR KEY                  79     230/ 15/ 18 1010.9F
FERNANDINA                 77 85  170/  4/  8 1011.9F
30.7N   81.3W                 83                N/A     4/ 5
MAYPORT                    76 83  170/  5/ 11 1012.9F
31.4N   80.9W              80 83  190/ 16/ 19 1012.3F   4/ 6
ST AUGUSTINE               74 80  190/  9/ 11 1013.1F

$$
FLZ040-043>046-052-053-057-058-063-144-020900-
INTERIOR CENTRAL FLORIDA

CITY           SKY/WX    TMP DP  RH WIND       PRES   REMARKS
OCALA          CLOUDY    73  70  88 S6        29.89F
THE VILLAGES     N/A     73  73 100 SE7       29.81S
LEESBURG       CLOUDY    75  71  87 S9        29.91F
SANFORD        MOCLDY    74  71  91 S8        29.91F
ORLANDO EXEC   MOCLDY    74  72  93 S8        29.91F
ORLANDO INTL   NOT AVBL
WINTER HAVEN   CLOUDY    75  72  90 S7        29.93F
LAKELAND       CLOUDY    72  70  94 S8        29.93F
BARTOW         FAIR      72 N/A N/A CALM      29.94F
OKEECHOBEE     MOCLDY    73  72  94 CALM      29.95F

$$
FLZ041-047-054-059-064-141-147-020900-
EAST CENTRAL FLORIDA

CITY           SKY/WX    TMP DP  RH WIND       PRES   REMARKS
DAYTONA BEACH  MOCLDY    73  69  87 S3        29.92F
DELAND           N/A     73  70  88 CALM      29.93S
JFK SPACE CTR  CLOUDY    72  68  87 S2        29.91F
CAPE CANAVERAL CLOUDY    73  72  95 S5        29.90F
PATRICK AFB    CLOUDY    75  72  91 S9        29.92F
MELBOURNE      CLOUDY    74  72  93 SW5       29.93F
VERO BEACH     CLOUDY    77  72  84 S6        29.94F
FT PIERCE      MOCLDY    78  73  84 S6        29.93F
STUART           N/A     75  72  88 S6        29.96F

STATION/POSITION SKY/WX   TEMP    WIND        PRES    WAVE   SWELL
                          AIR SEA DIR/SP/G            HT/PER HT/PER
                          (F)     (DEG/KT/KT) (MB)    (FT/S) (FT/S)
28.5N   80.2W              82 84  190/ 17/ 19 1013.7F
28.9N   78.5W              83 83  180/  8/ 10 1014.8F
TRIDENT PIER               75 78  190/  7/  9 1014.5F
28.4N   80.5W                 77                N/A     2/ 4
27.5N   80.2W                 77                N/A     2/ 5

$$
FLZ050-056-061-142-242-148-248-149-249-151-251-155-255-
160-260-020900-
WEST CENTRAL FLORIDA

CITY           SKY/WX    TMP DP  RH WIND       PRES   REMARKS
CRYSTAL RIVER  FAIR      73  72  94 SE6       29.88S
INVERNESS      FAIR      72  72 100 S8        29.90F
BROOKSVILLE    CLOUDY    74  71  91 S13       29.91F
ZEPHYRHILLS    PTSUNNY   70  70 100 CALM      29.93S
CLEARWATER     LGT RAIN  75  72  90 SW14      29.91F
TAMPA INTL     CLOUDY    76  72  87 SW18G25   29.92F
TAMPA EXEC     CLOUDY    75  72  88 SW7       29.93F
PLANT CITY     CLOUDY    73  73 100 S9        29.94F
MACDILL AFB    CLOUDY    75  75 100 SW10G20   29.92F
PETER O KNIGHT CLOUDY    77  73  88 SW7       29.93S
ST PETERSBURG  LGT RAIN  77  73  87 W14       29.90F
SARASOTA       LGT RAIN  76  72  87 W13G22    29.93S
VENICE         FAIR      75  73  94 NE3       29.95F

STATION/POSITION SKY/WX   TEMP    WIND        PRES    WAVE   SWELL
                          AIR SEA DIR/SP/G            HT/PER HT/PER
                          (F)     (DEG/KT/KT) (MB)    (FT/S) (FT/S)
CEDAR KEY                  79     230/ 15/ 18 1010.9F
28.5N   84.5W              83 84  230/ 17/ 23 1009.3F   6/ 7
27.3N   84.2W                 84                N/A     6/ 7
CLEARWATER BEACH           78 82  180/ 17/ 19 1013.4F
MIDDLE TAMPA BAY           81     230/ 22/ 25 1013.3F
VENICE                     77 84   70/  4/  5 1013.3F

$$
FLZ066-069-070-075>078-162-262-165-265-020900-
SOUTHWEST FLORIDA AND KEYS

CITY           SKY/WX    TMP DP  RH WIND       PRES   REMARKS
PUNTA GORDA    MOCLDY    74  74 100 SE3       29.95F
FT MYERS       PTCLDY    77  72  84 CALM      29.93F
SOUTHWEST INTL PTCLDY    78  76  93 E3        29.94F
NAPLES         MOCLDY    81  79  94 S3        29.93F
MARCO ISLAND   PTSUNNY   81  72  74 CALM      29.94F
MARATHON       CLEAR     86  76  71 S8        29.94F HX  96
KEY WEST NAS   CLEAR     83  76  79 S7        29.94F
KEY WEST INTL  CLEAR     85  77  77 S9        29.94F HX  95

STATION/POSITION SKY/WX   TEMP    WIND        PRES    WAVE   SWELL
                          AIR SEA DIR/SP/G            HT/PER HT/PER
                          (F)     (DEG/KT/KT) (MB)    (FT/S) (FT/S)
VENICE                     77 84   70/  4/  5 1013.3F
NAPLES                        86              1015.3F
26.0N   85.6W              84 84  240/ 12/ 14 1012.6F   4/ 6   2/ 9
DRY TORTUGAS               85     160/  3/  4 1014.4F
NW FL BAY                  87     160/ 10/ 12 1014.7
SAND KEY                   84     170/  6/  8 1014.1F
SOMBRERO KEY               85     150/ 12/ 14 1014.6F
LONG KEY                   85 88  160/ 11/ 14 1014.7F
MOLASSES REEF              85 87  150/  8/ 10 1014.3F

$$
FLZ067-068-071>074-168-172>174-020900-
SOUTHEAST FLORIDA

CITY           SKY/WX    TMP DP  RH WIND       PRES   REMARKS
W PALM BEACH   MOCLDY    77  68  73 SE6       29.96F
FT LAUDER-EXEC MOCLDY    81  75  82 SE5       29.94F
FT LAUDERDALE  MOCLDY    82  77  84 SE8       29.94F
POMPANO BEACH  MOCLDY    82  75  79 SE6       29.94F
PEMBROKE PINES PTCLDY    82  74  76 SE3       29.96F
OPA LOCKA      PTCLDY    79  74  84 CALM      29.95F
MIAMI          MOCLDY    82  74  76 CALM      29.95F
WEST KENDALL   PTCLDY    77  74  90 CALM      29.95F
HOMESTEAD      PTCLDY    80  76  88 E2        29.95F

STATION/POSITION SKY/WX   TEMP    WIND        PRES    WAVE   SWELL
                          AIR SEA DIR/SP/G            HT/PER HT/PER
                          (F)     (DEG/KT/KT) (MB)    (FT/S) (FT/S)
PORT EVERGLADES            83     150/  8/ 11 1014.0F
VIRGINIA KEY               84 86  140/  6/ 11 1014.4F
LAKE WORTH                 81 82  150/ 14/ 22 1014.9F
SETTLEMENT POINT           80     120/  5/  6 1015.4F

$$



USA.gov is the U.S. government's official web portal to all federal, state and local government web resources and services.